| time (UTC) | temp F | wind direction | speed MPH | gust MPH | rain 1hr in | rain 24hr in | rain mn in | humidity % | barometer mb |
| 20260831103520 | 67 | 0 | 0.0 | 0.0 | 0.06 | 1.45 | 0.21 | 94 | 1017.7 |
| 20260831103038 | 67 | 0 | 0.0 | 0.0 | 0.06 | 1.45 | 0.21 | 94 | 1017.8 |
| 20260831102520 | 67 | 0 | 0.0 | 0.0 | 0.06 | 1.45 | 0.21 | 95 | 1017.9 |
| 20260831102024 | 67 | 0 | 0.0 | 0.0 | 0.06 | 1.45 | 0.21 | 95 | 1017.9 |
| 20260831101544 | 67 | 0 | 0.0 | 0.0 | 0.07 | 1.45 | 0.21 | 94 | 1017.6 |
| 20260831101019 | 67 | 0 | 0.0 | 0.0 | 0.07 | 1.44 | 0.20 | 94 | 1017.7 |
| 20260831100520 | 67 | 0 | 0.0 | 0.0 | 0.02 | 1.40 | 0.15 | 94 | 1017.5 |
| 20260831100033 | 67 | 0 | 0.0 | 0.0 | 0.01 | 1.39 | 0.14 | 94 | 1017.6 |
| 20260831095516 | 67 | 0 | 0.0 | 0.0 | 0.01 | 1.39 | 0.14 | 94 | 1017.5 |
| 20260831095018 | 67 | 0 | 0.0 | 0.0 | 0.01 | 1.39 | 0.14 | 94 | 1017.5 |
| 20260831094543 | 67 | 0 | 0.0 | 0.0 | 0.01 | 1.39 | 0.14 | 94 | 1017.4 |
| 20260831094018 | 67 | 0 | 0.0 | 0.0 | 0.01 | 1.39 | 0.14 | 94 | 1017.5 |
| 20260831093519 | 67 | 0 | 0.0 | 0.0 | 0.01 | 1.39 | 0.14 | 94 | 1017.5 |
| 20260831093101 | 67 | 0 | 0.0 | 0.0 | 0.01 | 1.39 | 0.14 | 94 | 1017.6 |
| 20260831092519 | 67 | 0 | 0.0 | 0.0 | 0.01 | 1.39 | 0.14 | 94 | 1017.7 |
| 20260831092017 | 67 | 0 | 0.0 | 0.0 | 0.01 | 1.39 | 0.14 | 94 | 1017.6 |
| 20260831091546 | 67 | 0 | 0.0 | 0.0 | 0.00 | 1.38 | 0.14 | 94 | 1017.5 |
| 20260831091016 | 67 | 0 | 0.0 | 0.0 | 0.00 | 1.37 | 0.13 | 94 | 1017.4 |
| 20260831090518 | 67 | 0 | 0.0 | 0.0 | 0.00 | 1.37 | 0.13 | 94 | 1017.6 |
| 20260831090036 | 67 | 0 | 0.0 | 0.0 | 0.00 | 1.37 | 0.13 | 94 | 1017.6 |
| 20260831085517 | 67 | 0 | 0.0 | 0.0 | 0.00 | 1.37 | 0.13 | 94 | 1017.7 |
| 20260831085016 | 67 | 0 | 0.0 | 0.0 | 0.00 | 1.37 | 0.13 | 94 | 1017.7 |
| 20260831084627 | 67 | 0 | 0.0 | 0.0 | 0.00 | 1.37 | 0.13 | 94 | 1017.7 |
| 20260831084018 | 67 | 0 | 0.0 | 0.0 | 0.00 | 1.37 | 0.13 | 94 | 1017.7 |
| 20260831083519 | 67 | 0 | 0.0 | 0.0 | 0.00 | 1.37 | 0.13 | 94 | 1017.6 |
| 20260831083046 | 67 | 0 | 0.0 | 0.0 | 0.00 | 1.37 | 0.13 | 94 | 1017.6 |
| 20260831082519 | 67 | 0 | 0.0 | 0.0 | 0.00 | 1.37 | 0.13 | 94 | 1017.5 |
| 20260831082021 | 67 | 0 | 0.0 | 0.0 | 0.00 | 1.37 | 0.13 | 94 | 1017.7 |
| 20260831081535 | 67 | 0 | 0.0 | 0.0 | 0.00 | 1.37 | 0.13 | 94 | 1017.6 |
| 20260831081018 | 67 | 0 | 0.0 | 0.0 | 0.00 | 1.37 | 0.13 | 94 | 1017.6 |
| 20260831080516 | 66 | 0 | 0.0 | 0.0 | 0.03 | 1.37 | 0.13 | 94 | 1017.6 |
| 20260831080050 | 66 | 0 | 0.0 | 0.0 | 0.03 | 1.37 | 0.13 | 94 | 1017.6 |
| 20260831075516 | 66 | 0 | 0.0 | 0.0 | 0.03 | 1.37 | 0.13 | 94 | 1017.6 |
| 20260831075021 | 66 | 0 | 0.0 | 0.0 | 0.03 | 1.37 | 0.13 | 94 | 1017.7 |
| 20260831074547 | 66 | 0 | 0.0 | 0.0 | 0.03 | 1.37 | 0.13 | 94 | 1017.7 |
| 20260831074018 | 66 | 0 | 0.0 | 0.0 | 0.03 | 1.37 | 0.13 | 94 | 1017.7 |
| 20260831073517 | 66 | 0 | 0.0 | 0.0 | 0.03 | 1.37 | 0.13 | 94 | 1017.7 |
| 20260831073042 | 66 | 0 | 0.0 | 0.0 | 0.02 | 1.37 | 0.12 | 94 | 1017.7 |
| 20260831072521 | 66 | 0 | 0.0 | 0.0 | 0.02 | 1.37 | 0.12 | 94 | 1017.8 |
| 20260831072016 | 66 | 0 | 0.0 | 0.0 | 0.02 | 1.37 | 0.12 | 94 | 1017.9 |
| 20260831071545 | 66 | 0 | 0.0 | 0.0 | 0.03 | 1.37 | 0.12 | 94 | 1017.9 |
| 20260831071019 | 66 | 0 | 0.0 | 0.0 | 0.11 | 1.37 | 0.12 | 94 | 1018.0 |
| 20260831070518 | 66 | 0 | 0.0 | 0.0 | 0.10 | 1.34 | 0.10 | 94 | 1018.1 |
| 20260831070038 | 66 | 0 | 0.0 | 0.0 | 0.10 | 1.34 | 0.10 | 94 | 1018.0 |
| 20260831065520 | 66 | 0 | 0.0 | 1.0 | 0.10 | 1.34 | 0.10 | 94 | 1018.1 |
| 20260831065021 | 66 | 0 | 0.0 | 1.0 | 0.10 | 1.34 | 0.10 | 94 | 1018.0 |
| 20260831064545 | 66 | 0 | 0.0 | 1.0 | 0.10 | 1.34 | 0.10 | 94 | 1018.0 |
| 20260831064020 | 65 | 0 | 0.0 | 0.0 | 0.10 | 1.34 | 0.10 | 94 | 1018.0 |
| 20260831063519 | 65 | 0 | 0.0 | 0.0 | 0.10 | 1.34 | 0.10 | 94 | 1017.9 |
| 20260831063100 | 65 | 0 | 0.0 | 0.0 | 0.10 | 1.34 | 0.10 | 94 | 1018.0 |
| 20260831062519 | 65 | 0 | 0.0 | 0.0 | 0.10 | 1.34 | 0.10 | 94 | 1018.2 |
| 20260831062021 | 65 | 0 | 0.0 | 0.0 | 0.09 | 1.33 | 0.09 | 93 | 1018.1 |
| 20260831061536 | 65 | 0 | 0.0 | 0.0 | 0.07 | 1.31 | 0.07 | 94 | 1018.1 |
| 20260831061018 | 65 | 0 | 0.0 | 0.0 | 0.00 | 1.24 | 0.00 | 93 | 1018.0 |
| 20260831060517 | 65 | 0 | 0.0 | 0.0 | 0.00 | 1.24 | 0.00 | 93 | 1018.3 |
| 20260831060040 | 65 | 0 | 0.0 | 1.0 | 0.00 | 1.24 | 0.00 | 93 | 1018.4 |
| 20260831055517 | 65 | 0 | 0.0 | 1.0 | 0.00 | 1.24 | 0.00 | 93 | 1018.3 |
| 20260831055019 | 65 | 0 | 0.0 | 0.0 | 0.00 | 1.24 | 0.00 | 93 | 1018.4 |
| 20260831054535 | 64 | 0 | 0.0 | 0.0 | 0.00 | 1.24 | 0.00 | 93 | 1018.3 |
| 20260831054017 | 64 | 0 | 0.0 | 0.0 | 0.00 | 1.24 | 0.00 | 93 | 1018.4 |
| 20260831053517 | 64 | 0 | 0.0 | 0.0 | 0.00 | 1.24 | 0.00 | 93 | 1018.4 |
| 20260831053052 | 64 | 0 | 0.0 | 0.0 | 0.00 | 1.24 | 0.00 | 93 | 1018.4 |
| 20260831052517 | 64 | 0 | 0.0 | 0.0 | 0.00 | 1.24 | 0.00 | 93 | 1018.5 |
| 20260831052020 | 64 | 0 | 0.0 | 0.0 | 0.00 | 1.24 | 0.00 | 93 | 1018.5 |
| 20260831051540 | 64 | 0 | 0.0 | 0.0 | 0.00 | 1.24 | 0.00 | 93 | 1018.3 |
| 20260831051017 | 64 | 0 | 0.0 | 0.0 | 0.00 | 1.24 | 0.00 | 92 | 1018.3 |
| 20260831050523 | 64 | 0 | 0.0 | 0.0 | 0.00 | 1.24 | 0.00 | 92 | 1018.4 |
| 20260831050039 | 64 | 0 | 0.0 | 0.0 | 0.00 | 1.24 | 0.00 | 92 | 1018.5 |
| 20260831045523 | 64 | 0 | 0.0 | 0.0 | 0.00 | 1.24 | 0.00 | 92 | 1018.6 |
| 20260831045019 | 64 | 0 | 0.0 | 0.0 | 0.00 | 1.24 | 0.00 | 92 | 1018.6 |
| 20260831044535 | 64 | 0 | 0.0 | 0.0 | 0.00 | 1.24 | 0.00 | 93 | 1018.6 |
| 20260831044017 | 64 | 0 | 0.0 | 0.0 | 0.00 | 1.24 | 0.00 | 93 | 1018.5 |
| 20260831043518 | 64 | 0 | 0.0 | 0.0 | 0.00 | 1.24 | 0.00 | 93 | 1018.5 |
| 20260831043043 | 64 | 0 | 0.0 | 2.0 | 0.00 | 1.24 | 0.00 | 93 | 1018.5 |
| 20260831042517 | 63 | 0 | 0.0 | 2.0 | 0.00 | 1.24 | 0.00 | 93 | 1018.5 |
| 20260831042017 | 63 | 0 | 0.0 | 0.0 | 0.00 | 1.24 | 0.00 | 93 | 1018.4 |
| 20260831041543 | 63 | 0 | 0.0 | 0.0 | 0.00 | 1.24 | 0.00 | 93 | 1018.3 |
| 20260831041022 | 63 | 0 | 0.0 | 0.0 | 0.00 | 1.24 | 0.00 | 93 | 1018.3 |
| 20260831040519 | 63 | 0 | 0.0 | 0.0 | 0.00 | 1.24 | 0.00 | 93 | 1018.4 |
| 20260831040042 | 63 | 0 | 0.0 | 0.0 | 0.00 | 1.24 | 0.00 | 93 | 1018.3 |
| 20260831035517 | 63 | 0 | 0.0 | 0.0 | 0.00 | 1.24 | 1.24 | 93 | 1018.3 |
| 20260831035019 | 63 | 0 | 0.0 | 0.0 | 0.00 | 1.24 | 1.24 | 93 | 1018.2 |
| 20260831034539 | 63 | 0 | 0.0 | 0.0 | 0.00 | 1.24 | 1.24 | 93 | 1018.4 |
| 20260831034016 | 63 | 0 | 0.0 | 0.0 | 0.00 | 1.24 | 1.24 | 93 | 1018.3 |
| 20260831033518 | 63 | 0 | 0.0 | 0.0 | 0.00 | 1.24 | 1.24 | 93 | 1018.3 |
| 20260831033041 | 63 | 0 | 0.0 | 0.0 | 0.00 | 1.24 | 1.24 | 93 | 1018.3 |
| 20260831032518 | 63 | 0 | 0.0 | 0.0 | 0.00 | 1.24 | 1.24 | 93 | 1018.3 |
| 20260831032018 | 63 | 0 | 0.0 | 0.0 | 0.00 | 1.24 | 1.24 | 93 | 1018.2 |
| 20260831031534 | 63 | 0 | 0.0 | 0.0 | 0.00 | 1.24 | 1.24 | 93 | 1018.2 |
| 20260831031017 | 63 | 0 | 0.0 | 0.0 | 0.00 | 1.24 | 1.24 | 92 | 1018.2 |
| 20260831030519 | 63 | 0 | 0.0 | 0.0 | 0.00 | 1.24 | 1.24 | 93 | 1018.2 |
| 20260831030046 | 63 | 0 | 0.0 | 0.0 | 0.00 | 1.24 | 1.24 | 92 | 1018.3 |
| 20260831025518 | 63 | 0 | 0.0 | 2.0 | 0.00 | 1.24 | 1.24 | 92 | 1018.3 |
| 20260831025018 | 63 | 0 | 0.0 | 2.0 | 0.00 | 1.24 | 1.24 | 92 | 1018.3 |
| 20260831024546 | 64 | 0 | 0.0 | 2.0 | 0.00 | 1.24 | 1.24 | 93 | 1018.3 |
| 20260831024019 | 64 | 0 | 0.0 | 2.0 | 0.00 | 1.24 | 1.24 | 93 | 1018.4 |
| 20260831023522 | 64 | 0 | 0.0 | 2.0 | 0.00 | 1.24 | 1.24 | 93 | 1018.4 |
| 20260831023040 | 64 | 0 | 0.0 | 2.0 | 0.00 | 1.24 | 1.24 | 93 | 1018.4 |
| 20260831022519 | 64 | 0 | 0.0 | 2.0 | 0.00 | 1.24 | 1.24 | 93 | 1018.5 |
| 20260831022019 | 64 | 0 | 0.0 | 3.0 | 0.00 | 1.24 | 1.24 | 93 | 1018.4 |
| 20260831021536 | 64 | 0 | 0.0 | 3.0 | 0.00 | 1.24 | 1.24 | 93 | 1018.2 |
| 20260831021017 | 64 | 0 | 0.0 | 3.0 | 0.01 | 1.24 | 1.24 | 93 | 1018.4 |
| 20260831020518 | 64 | 207 | 0.0 | 4.0 | 0.03 | 1.24 | 1.24 | 93 | 1018.4 |
| 20260831020039 | 64 | 0 | 0.0 | 4.0 | 0.03 | 1.24 | 1.24 | 93 | 1018.5 |
| 20260831015516 | 64 | 0 | 0.0 | 4.0 | 0.03 | 1.24 | 1.24 | 93 | 1018.6 |
| 20260831015019 | 64 | 206 | 0.0 | 4.0 | 0.03 | 1.24 | 1.24 | 93 | 1018.7 |
| 20260831014540 | 64 | 0 | 0.0 | 4.0 | 0.03 | 1.24 | 1.24 | 93 | 1018.6 |
| 20260831014020 | 64 | 148 | 1.0 | 8.0 | 0.05 | 1.23 | 1.23 | 92 | 1018.6 |
| 20260831013519 | 64 | 0 | 1.0 | 8.0 | 0.07 | 1.23 | 1.23 | 92 | 1018.5 |
| 20260831013035 | 64 | 0 | 1.0 | 8.0 | 0.11 | 1.23 | 1.23 | 92 | 1018.5 |
| 20260831012518 | 64 | 0 | 1.0 | 5.0 | 0.11 | 1.23 | 1.23 | 93 | 1018.4 |
| 20260831012018 | 64 | 144 | 1.0 | 5.0 | 0.11 | 1.23 | 1.23 | 93 | 1018.7 |
| 20260831011534 | 64 | 230 | 1.0 | 4.0 | 0.13 | 1.23 | 1.23 | 93 | 1018.8 |
| 20260831011016 | 65 | 194 | 0.0 | 3.0 | 0.14 | 1.22 | 1.22 | 93 | 1018.8 |
| 20260831010518 | 65 | 0 | 0.0 | 3.0 | 0.14 | 1.21 | 1.21 | 93 | 1018.9 |
| 20260831010036 | 65 | 0 | 0.0 | 0.0 | 0.15 | 1.21 | 1.21 | 93 | 1019.1 |
| 20260831005516 | 65 | 0 | 0.0 | 2.0 | 0.15 | 1.21 | 1.21 | 93 | 1019.1 |
| 20260831005023 | 65 | 0 | 0.0 | 2.0 | 0.15 | 1.21 | 1.21 | 93 | 1019.1 |
| 20260831004542 | 65 | 0 | 0.0 | 2.0 | 0.14 | 1.20 | 1.20 | 93 | 1019.1 |
| 20260831004018 | 65 | 0 | 0.0 | 0.0 | 0.12 | 1.18 | 1.18 | 93 | 1019.2 |
| 20260831003522 | 65 | 0 | 0.0 | 1.0 | 0.11 | 1.15 | 1.15 | 93 | 1019.2 |
| 20260831003036 | 65 | 0 | 0.0 | 1.0 | 0.08 | 1.12 | 1.12 | 93 | 1019.1 |
| 20260831002516 | 65 | 0 | 0.0 | 1.0 | 0.08 | 1.11 | 1.11 | 93 | 1019.1 |
| 20260831002020 | 66 | 0 | 0.0 | 0.0 | 0.08 | 1.11 | 1.11 | 93 | 1019.2 |
| 20260831001540 | 66 | 0 | 0.0 | 0.0 | 0.07 | 1.10 | 1.10 | 93 | 1019.3 |
| 20260831001019 | 66 | 0 | 0.0 | 0.0 | 0.05 | 1.07 | 1.07 | 93 | 1019.3 |
| 20260831000517 | 66 | 0 | 0.0 | 0.0 | 0.04 | 1.07 | 1.07 | 93 | 1019.4 |
| 20260831000037 | 66 | 0 | 0.0 | 0.0 | 0.03 | 1.05 | 1.05 | 93 | 1019.5 |
| 20260830235518 | 66 | 0 | 0.0 | 1.0 | 0.03 | 1.05 | 1.05 | 93 | 1019.5 |
| 20260830235019 | 66 | 0 | 0.0 | 1.0 | 0.03 | 1.05 | 1.05 | 93 | 1019.6 |
| 20260830234543 | 66 | 0 | 0.0 | 1.0 | 0.03 | 1.05 | 1.05 | 94 | 1019.4 |
| 20260830234017 | 66 | 0 | 0.0 | 0.0 | 0.03 | 1.05 | 1.05 | 94 | 1019.5 |
| 20260830233520 | 66 | 0 | 0.0 | 0.0 | 0.03 | 1.04 | 1.04 | 94 | 1019.7 |
| 20260830233038 | 66 | 0 | 0.0 | 0.0 | 0.02 | 1.03 | 1.03 | 94 | 1019.4 |
| 20260830232520 | 66 | 0 | 0.0 | 0.0 | 0.01 | 1.03 | 1.03 | 94 | 1019.5 |
| 20260830232021 | 66 | 0 | 0.0 | 0.0 | 0.00 | 1.02 | 1.02 | 94 | 1019.7 |
| 20260830231537 | 66 | 0 | 0.0 | 1.0 | 0.00 | 1.02 | 1.02 | 94 | 1019.9 |
| 20260830231016 | 67 | 0 | 0.0 | 1.0 | 0.01 | 1.02 | 1.02 | 94 | 1019.8 |
| 20260830230517 | 66 | 0 | 0.0 | 0.0 | 0.02 | 1.02 | 1.02 | 94 | 1019.6 |
| 20260830230036 | 67 | 0 | 0.0 | 0.0 | 0.01 | 1.01 | 1.01 | 94 | 1019.7 |
| 20260830225518 | 66 | 0 | 0.0 | 0.0 | 0.03 | 1.01 | 1.01 | 94 | 1019.8 |
| 20260830225016 | 66 | 0 | 0.0 | 0.0 | 0.03 | 1.01 | 1.01 | 94 | 1019.7 |
| 20260830224539 | 66 | 0 | 0.0 | 0.0 | 0.03 | 1.01 | 1.01 | 94 | 1019.9 |
| 20260830224021 | 66 | 0 | 0.0 | 0.0 | 0.03 | 1.01 | 1.01 | 94 | 1019.6 |
| 20260830223520 | 66 | 0 | 0.0 | 0.0 | 0.03 | 1.01 | 1.01 | 94 | 1019.7 |
| 20260830223037 | 66 | 0 | 0.0 | 0.0 | 0.03 | 1.01 | 1.01 | 94 | 1019.6 |
| 20260830222518 | 66 | 0 | 0.0 | 0.0 | 0.05 | 1.01 | 1.01 | 94 | 1019.5 |
| 20260830222017 | 66 | 0 | 0.0 | 0.0 | 0.08 | 1.01 | 1.01 | 94 | 1019.4 |
| 20260830221537 | 66 | 0 | 0.0 | 0.0 | 0.11 | 1.01 | 1.01 | 94 | 1019.3 |
| 20260830221042 | 67 | 0 | 0.0 | 0.0 | 0.11 | 1.00 | 1.00 | 94 | 1018.9 |
| 20260830220518 | 67 | 0 | 0.0 | 0.0 | 0.11 | 1.00 | 1.00 | 94 | 1018.8 |
| 20260830220038 | 67 | 0 | 0.0 | 0.0 | 0.11 | 1.00 | 1.00 | 93 | 1018.7 |
| 20260830215518 | 67 | 0 | 0.0 | 0.0 | 0.09 | 0.98 | 0.98 | 94 | 1018.9 |
| 20260830215020 | 67 | 0 | 0.0 | 0.0 | 0.11 | 0.98 | 0.98 | 94 | 1018.9 |
| 20260830214535 | 67 | 0 | 0.0 | 0.0 | 0.14 | 0.98 | 0.98 | 94 | 1018.8 |
| 20260830214020 | 67 | 0 | 0.0 | 0.0 | 0.14 | 0.98 | 0.98 | 94 | 1018.7 |
| 20260830213516 | 67 | 0 | 0.0 | 1.0 | 0.14 | 0.98 | 0.98 | 94 | 1018.5 |
| 20260830213033 | 67 | 0 | 0.0 | 1.0 | 0.14 | 0.97 | 0.97 | 94 | 1018.5 |
| 20260830212518 | 67 | 0 | 0.0 | 0.0 | 0.13 | 0.96 | 0.96 | 94 | 1018.6 |
| 20260830212019 | 67 | 0 | 0.0 | 0.0 | 0.10 | 0.92 | 0.92 | 94 | 1018.6 |
| 20260830211538 | 67 | 0 | 0.0 | 0.0 | 0.08 | 0.90 | 0.90 | 94 | 1018.7 |
| 20260830211019 | 66 | 0 | 0.0 | 0.0 | 0.07 | 0.88 | 0.88 | 94 | 1018.7 |
| 20260830210519 | 66 | 0 | 0.0 | 0.0 | 0.07 | 0.88 | 0.88 | 94 | 1018.8 |
| 20260830210037 | 66 | 0 | 0.0 | 0.0 | 0.08 | 0.88 | 0.88 | 94 | 1018.9 |
| 20260830205520 | 66 | 0 | 0.0 | 0.0 | 0.10 | 0.88 | 0.88 | 94 | 1018.8 |
| 20260830205018 | 66 | 0 | 0.0 | 0.0 | 0.10 | 0.87 | 0.87 | 94 | 1018.9 |
| 20260830204533 | 66 | 0 | 0.0 | 0.0 | 0.08 | 0.84 | 0.84 | 94 | 1018.9 |
| 20260830204020 | 66 | 0 | 0.0 | 0.0 | 0.09 | 0.84 | 0.84 | 94 | 1019.1 |
| 20260830203517 | 66 | 0 | 0.0 | 0.0 | 0.09 | 0.83 | 0.83 | 94 | 1019.1 |
| 20260830203034 | 66 | 0 | 0.0 | 0.0 | 0.09 | 0.82 | 0.82 | 94 | 1019.2 |
| 20260830202518 | 65 | 0 | 0.0 | 0.0 | 0.09 | 0.82 | 0.82 | 94 | 1019.0 |
| 20260830202020 | 65 | 0 | 0.0 | 0.0 | 0.08 | 0.81 | 0.81 | 94 | 1019.0 |
| 20260830201539 | 65 | 0 | 0.0 | 0.0 | 0.09 | 0.81 | 0.81 | 94 | 1019.2 |
| 20260830201014 | 65 | 0 | 0.0 | 0.0 | 0.08 | 0.81 | 0.81 | 94 | 1019.1 |
| 20260830200516 | 65 | 0 | 0.0 | 0.0 | 0.09 | 0.81 | 0.81 | 94 | 1019.2 |
| 20260830200036 | 65 | 0 | 0.0 | 0.0 | 0.11 | 0.80 | 0.80 | 94 | 1019.2 |
| 20260830195520 | 65 | 0 | 0.0 | 0.0 | 0.10 | 0.78 | 0.78 | 94 | 1019.2 |
| 20260830195018 | 65 | 0 | 0.0 | 0.0 | 0.09 | 0.77 | 0.77 | 94 | 1018.9 |
| 20260830194535 | 64 | 0 | 0.0 | 0.0 | 0.07 | 0.75 | 0.75 | 94 | 1019.2 |
| 20260830194017 | 64 | 0 | 0.0 | 0.0 | 0.07 | 0.74 | 0.74 | 94 | 1019.2 |
| 20260830193517 | 64 | 0 | 0.0 | 0.0 | 0.06 | 0.74 | 0.74 | 93 | 1019.3 |
| 20260830193034 | 64 | 0 | 0.0 | 0.0 | 0.05 | 0.73 | 0.73 | 93 | 1019.3 |
| 20260830192516 | 64 | 0 | 0.0 | 0.0 | 0.06 | 0.73 | 0.73 | 93 | 1019.4 |
| 20260830192018 | 64 | 0 | 0.0 | 0.0 | 0.07 | 0.73 | 0.73 | 93 | 1019.5 |
| 20260830191537 | 64 | 0 | 0.0 | 0.0 | 0.08 | 0.72 | 0.72 | 92 | 1019.6 |
| 20260830191017 | 64 | 0 | 0.0 | 0.0 | 0.08 | 0.72 | 0.72 | 92 | 1019.7 |
| 20260830190517 | 64 | 0 | 0.0 | 0.0 | 0.07 | 0.70 | 0.70 | 92 | 1019.5 |
| 20260830190037 | 64 | 0 | 0.0 | 0.0 | 0.06 | 0.69 | 0.69 | 93 | 1019.5 |
| 20260830185520 | 64 | 0 | 0.0 | 0.0 | 0.05 | 0.68 | 0.68 | 93 | 1019.7 |
| 20260830185023 | 64 | 0 | 0.0 | 0.0 | 0.06 | 0.67 | 0.67 | 93 | 1019.7 |
| 20260830184536 | 64 | 0 | 0.0 | 0.0 | 0.07 | 0.67 | 0.67 | 93 | 1019.8 |
| 20260830184017 | 64 | 0 | 0.0 | 0.0 | 0.08 | 0.67 | 0.67 | 92 | 1019.9 |
| 20260830183516 | 64 | 0 | 0.0 | 0.0 | 0.10 | 0.67 | 0.67 | 92 | 1019.8 |
| 20260830183042 | 64 | 0 | 0.0 | 0.0 | 0.11 | 0.67 | 0.67 | 92 | 1019.8 |
| 20260830182518 | 64 | 0 | 0.0 | 0.0 | 0.12 | 0.66 | 0.66 | 92 | 1019.8 |
| 20260830182018 | 64 | 0 | 0.0 | 0.0 | 0.11 | 0.65 | 0.65 | 92 | 1019.6 |
| 20260830181535 | 64 | 0 | 0.0 | 0.0 | 0.10 | 0.63 | 0.63 | 92 | 1019.8 |
| 20260830181020 | 65 | 0 | 0.0 | 0.0 | 0.11 | 0.63 | 0.63 | 92 | 1019.8 |
| 20260830180517 | 65 | 0 | 0.0 | 0.0 | 0.11 | 0.62 | 0.62 | 92 | 1019.8 |
| 20260830180037 | 65 | 0 | 0.0 | 0.0 | 0.13 | 0.62 | 0.62 | 92 | 1019.8 |
| 20260830175515 | 65 | 0 | 0.0 | 0.0 | 0.14 | 0.62 | 0.62 | 92 | 1019.9 |
| 20260830175019 | 65 | 0 | 0.0 | 0.0 | 0.15 | 0.61 | 0.61 | 92 | 1020.0 |
| 20260830174536 | 65 | 0 | 0.0 | 0.0 | 0.16 | 0.59 | 0.59 | 92 | 1020.1 |
| 20260830174017 | 65 | 0 | 0.0 | 0.0 | 0.17 | 0.58 | 0.58 | 92 | 1020.0 |
| 20260830173517 | 65 | 0 | 0.0 | 0.0 | 0.18 | 0.56 | 0.56 | 92 | 1020.2 |
| 20260830173036 | 65 | 0 | 0.0 | 0.0 | 0.19 | 0.55 | 0.55 | 91 | 1020.4 |
| 20260830172520 | 65 | 0 | 0.0 | 0.0 | 0.21 | 0.54 | 0.54 | 92 | 1020.4 |
| 20260830172018 | 65 | 0 | 0.0 | 0.0 | 0.23 | 0.53 | 0.53 | 92 | 1020.3 |
| 20260830171541 | 65 | 0 | 0.0 | 0.0 | 0.27 | 0.53 | 0.53 | 92 | 1020.3 |
| 20260830171019 | 65 | 0 | 0.0 | 0.0 | 0.29 | 0.52 | 0.52 | 92 | 1020.2 |
| 20260830170523 | 65 | 0 | 0.0 | 0.0 | 0.28 | 0.51 | 0.51 | 92 | 1020.3 |
| 20260830170036 | 65 | 0 | 0.0 | 0.0 | 0.28 | 0.49 | 0.49 | 92 | 1020.4 |
| 20260830165517 | 65 | 0 | 0.0 | 0.0 | 0.27 | 0.48 | 0.48 | 92 | 1020.4 |
| 20260830165018 | 65 | 0 | 0.0 | 0.0 | 0.26 | 0.44 | 0.44 | 92 | 1020.5 |
| 20260830164535 | 65 | 0 | 0.0 | 0.0 | 0.25 | 0.43 | 0.43 | 92 | 1020.7 |
| 20260830164018 | 65 | 0 | 0.0 | 0.0 | 0.22 | 0.40 | 0.40 | 91 | 1020.7 |
| 20260830163519 | 65 | 0 | 0.0 | 0.0 | 0.20 | 0.37 | 0.37 | 92 | 1020.6 |
| 20260830163047 | 65 | 0 | 0.0 | 0.0 | 0.18 | 0.36 | 0.36 | 92 | 1020.6 |
| 20260830162518 | 65 | 0 | 0.0 | 0.0 | 0.14 | 0.32 | 0.32 | 91 | 1020.8 |
| 20260830162017 | 66 | 0 | 0.0 | 0.0 | 0.11 | 0.28 | 0.28 | 91 | 1020.8 |
| 20260830161535 | 66 | 0 | 0.0 | 0.0 | 0.09 | 0.25 | 0.25 | 91 | 1020.9 |
| 20260830161019 | 66 | 0 | 0.0 | 0.0 | 0.07 | 0.23 | 0.23 | 91 | 1021.0 |
| 20260830160518 | 66 | 0 | 0.0 | 0.0 | 0.06 | 0.22 | 0.22 | 92 | 1020.9 |
| 20260830160052 | 66 | 0 | 0.0 | 0.0 | 0.04 | 0.21 | 0.21 | 92 | 1020.9 |
| 20260830155516 | 66 | 0 | 0.0 | 0.0 | 0.03 | 0.19 | 0.19 | 92 | 1020.9 |
| 20260830155018 | 66 | 0 | 0.0 | 0.0 | 0.01 | 0.18 | 0.18 | 92 | 1021.0 |
| 20260830154535 | 66 | 0 | 0.0 | 0.0 | 0.00 | 0.17 | 0.17 | 91 | 1020.8 |
| 20260830154025 | 66 | 0 | 0.0 | 0.0 | 0.01 | 0.17 | 0.17 | 91 | 1020.7 |
| 20260830153519 | 66 | 0 | 0.0 | 0.0 | 0.02 | 0.17 | 0.17 | 92 | 1020.5 |
| 20260830153039 | 66 | 0 | 0.0 | 0.0 | 0.02 | 0.17 | 0.17 | 92 | 1020.4 |
| 20260830152519 | 66 | 0 | 0.0 | 0.0 | 0.02 | 0.17 | 0.17 | 93 | 1020.6 |
| 20260830152018 | 66 | 0 | 0.0 | 0.0 | 0.01 | 0.16 | 0.16 | 92 | 1020.5 |
| 20260830151539 | 66 | 0 | 0.0 | 0.0 | 0.01 | 0.16 | 0.16 | 93 | 1020.3 |
| 20260830151017 | 66 | 0 | 0.0 | 0.0 | 0.01 | 0.16 | 0.16 | 93 | 1020.5 |
| 20260830150519 | 66 | 0 | 0.0 | 0.0 | 0.01 | 0.16 | 0.16 | 93 | 1020.5 |
| 20260830150035 | 66 | 0 | 0.0 | 0.0 | 0.01 | 0.16 | 0.16 | 93 | 1020.6 |
| 20260830145518 | 65 | 0 | 0.0 | 0.0 | 0.01 | 0.16 | 0.16 | 93 | 1020.7 |
| 20260830145020 | 65 | 0 | 0.0 | 0.0 | 0.01 | 0.16 | 0.16 | 93 | 1020.5 |
| 20260830144538 | 65 | 0 | 0.0 | 0.0 | 0.02 | 0.16 | 0.16 | 93 | 1020.5 |
| 20260830144017 | 65 | 0 | 0.0 | 0.0 | 0.01 | 0.15 | 0.15 | 93 | 1020.6 |
| 20260830143516 | 65 | 0 | 0.0 | 0.0 | 0.00 | 0.14 | 0.14 | 93 | 1020.4 |
| 20260830143040 | 65 | 0 | 0.0 | 0.0 | 0.00 | 0.14 | 0.14 | 93 | 1020.3 |
| 20260830142520 | 65 | 0 | 0.0 | 0.0 | 0.00 | 0.14 | 0.14 | 93 | 1020.3 |
| 20260830142018 | 65 | 0 | 0.0 | 0.0 | 0.01 | 0.14 | 0.14 | 92 | 1020.4 |
| 20260830141536 | 65 | 0 | 0.0 | 0.0 | 0.02 | 0.14 | 0.14 | 93 | 1020.5 |
| 20260830141018 | 65 | 0 | 0.0 | 0.0 | 0.03 | 0.14 | 0.14 | 92 | 1020.4 |
| 20260830140517 | 65 | 0 | 0.0 | 0.0 | 0.03 | 0.14 | 0.14 | 92 | 1020.4 |
| 20260830140038 | 65 | 0 | 0.0 | 0.0 | 0.04 | 0.14 | 0.14 | 92 | 1020.3 |
| 20260830135519 | 65 | 0 | 0.0 | 0.0 | 0.06 | 0.14 | 0.14 | 92 | 1020.4 |
| 20260830135019 | 65 | 0 | 0.0 | 0.0 | 0.07 | 0.14 | 0.14 | 92 | 1020.4 |
| 20260830134549 | 65 | 0 | 0.0 | 0.0 | 0.07 | 0.14 | 0.14 | 92 | 1020.7 |
| 20260830134018 | 65 | 0 | 0.0 | 0.0 | 0.08 | 0.14 | 0.14 | 92 | 1020.7 |
| 20260830133518 | 64 | 0 | 0.0 | 0.0 | 0.09 | 0.14 | 0.14 | 92 | 1020.8 |
| 20260830133041 | 64 | 0 | 0.0 | 0.0 | 0.11 | 0.14 | 0.14 | 92 | 1020.9 |
| 20260830132517 | 64 | 0 | 0.0 | 0.0 | 0.12 | 0.14 | 0.14 | 92 | 1020.9 |
| 20260830132018 | 64 | 0 | 0.0 | 0.0 | 0.11 | 0.13 | 0.13 | 92 | 1020.9 |
| 20260830131543 | 64 | 0 | 0.0 | 0.0 | 0.11 | 0.12 | 0.12 | 92 | 1021.0 |
| 20260830131018 | 64 | 0 | 0.0 | 0.0 | 0.10 | 0.11 | 0.11 | 92 | 1021.0 |
| 20260830130518 | 64 | 0 | 0.0 | 0.0 | 0.09 | 0.11 | 0.11 | 92 | 1021.0 |
| 20260830130049 | 64 | 0 | 0.0 | 0.0 | 0.07 | 0.09 | 0.09 | 91 | 1020.9 |
| 20260830125520 | 64 | 0 | 0.0 | 0.0 | 0.06 | 0.07 | 0.07 | 91 | 1020.8 |
| 20260830125019 | 64 | 0 | 0.0 | 0.0 | 0.05 | 0.07 | 0.07 | 91 | 1020.6 |
| 20260830124538 | 65 | 0 | 0.0 | 0.0 | 0.04 | 0.06 | 0.06 | 91 | 1020.6 |
| 20260830124019 | 65 | 0 | 0.0 | 0.0 | 0.03 | 0.05 | 0.05 | 91 | 1020.7 |
| 20260830123516 | 65 | 0 | 0.0 | 0.0 | 0.03 | 0.04 | 0.04 | 91 | 1020.7 |
| 20260830123044 | 65 | 0 | 0.0 | 0.0 | 0.03 | 0.03 | 0.03 | 91 | 1020.7 |
| 20260830122519 | 65 | 0 | 0.0 | 0.0 | 0.01 | 0.01 | 0.01 | 90 | 1020.8 |
| 20260830122018 | 65 | 0 | 0.0 | 0.0 | 0.01 | 0.01 | 0.01 | 91 | 1020.6 |
| 20260830121549 | 65 | 0 | 0.0 | 0.0 | 0.01 | 0.01 | 0.01 | 90 | 1020.4 |
| 20260830121017 | 65 | 0 | 0.0 | 1.0 | 0.01 | 0.01 | 0.01 | 90 | 1020.4 |
| 20260830120519 | 65 | 0 | 0.0 | 1.0 | 0.01 | 0.01 | 0.01 | 90 | 1020.3 |
| 20260830120036 | 65 | 0 | 0.0 | 0.0 | 0.01 | 0.01 | 0.01 | 90 | 1020.1 |
| 20260830115522 | 65 | 0 | 0.0 | 0.0 | 0.01 | 0.01 | 0.01 | 90 | 1020.2 |
| 20260830115018 | 65 | 0 | 0.0 | 0.0 | 0.01 | 0.01 | 0.01 | 90 | 1020.1 |
| 20260830114534 | 65 | 0 | 0.0 | 0.0 | 0.01 | 0.01 | 0.01 | 90 | 1020.1 |
| 20260830114017 | 65 | 0 | 0.0 | 0.0 | 0.01 | 0.01 | 0.01 | 90 | 1020.1 |
| 20260830113517 | 65 | 0 | 0.0 | 0.0 | 0.00 | 0.00 | 0.00 | 90 | 1020.0 |
| 20260830113036 | 65 | 0 | 0.0 | 0.0 | 0.00 | 0.00 | 0.00 | 90 | 1020.2 |
| 20260830112516 | 65 | 0 | 0.0 | 0.0 | 0.00 | 0.00 | 0.00 | 90 | 1019.9 |
| 20260830112022 | 65 | 0 | 0.0 | 0.0 | 0.00 | 0.00 | 0.00 | 90 | 1019.8 |
| 20260830111541 | 65 | 0 | 0.0 | 0.0 | 0.00 | 0.00 | 0.00 | 91 | 1019.8 |
| 20260830111016 | 65 | 0 | 0.0 | 0.0 | 0.00 | 0.00 | 0.00 | 91 | 1019.8 |
| 20260830110520 | 65 | 0 | 0.0 | 0.0 | 0.00 | 0.00 | 0.00 | 91 | 1019.8 |
| 20260830110037 | 65 | 0 | 0.0 | 0.0 | 0.00 | 0.00 | 0.00 | 91 | 1019.8 |
| 20260830105518 | 65 | 0 | 0.0 | 0.0 | 0.00 | 0.00 | 0.00 | 91 | 1019.8 |
| 20260830105018 | 65 | 0 | 0.0 | 0.0 | 0.00 | 0.00 | 0.00 | 91 | 1019.8 |
| 20260830104534 | 65 | 0 | 0.0 | 0.0 | 0.00 | 0.00 | 0.00 | 91 | 1019.8 |
| 20260830104018 | 65 | 0 | 0.0 | 0.0 | 0.00 | 0.00 | 0.00 | 91 | 1019.7 |